Terminal Aerodrome Forecast
Issued by NWS

Home | Current Version | Previous Version | Graphics & Text | Print | Product List | Glossary On
Versions: 1 2 3 4 5 6 7 8 9 10 11 12 13 14 15 16 17 18 19 20 21 22 23 24 25 26 27 28
000
FTUS43 KICT 211410 AAA
TAFCNU
TAF AMD
KCNU 211410Z 2114/2212 18010KT P6SM SCT015 OVC022
      TEMPO 2114/2116 BKN015
     FM211600 17015G21KT P6SM OVC015
     FM220300 17013KT 5SM BR OVC008=

USA.gov is the U.S. government's official web portal to all federal, state and local government web resources and services.